Regional Weather Roundup
Issued by NWS Portland, ME

Current Version | Previous Version | Text Only | Print | Product List | Glossary Off
Versions: 1 2 3 4 5 6 7 8 9 10 11 12 13 14 15 16 17 18 19 20 21 22 23 24 25 26 27 28 29 30 31 32 33 34 35 36 37 38 39 40 41 42 43 44 45 46 47 48 49 50
000 ASUS41 KGYX 182010 RWRGYX WEATHER ROUNDUP FOR MAINE AND NEW HAMPSHIRE NATIONAL WEATHER SERVICE GRAY ME 400 PM EDT THU OCT 18 2018 MEZ002-005-006-010-012-015-018-020-021-024-026-027-029-182100- MAINE CITY SKY/WX TMP DP RH WIND PRES REMARKS PORTLAND FAIR 44 18 35 W20G31 30.15R SANFORD PTSUNNY 43 18 36 W20G28 30.16R BAR HARBOR FAIR 39 14 36 NW15G24 30.03R WISCASSET FAIR 41 14 33 NW14G23 30.13R ROCKLAND PTSUNNY 41 16 36 W20G30 30.07R FRYEBURG CLOUDY 41 15 35 W12G18 30.15S LEWISTONAUBURN FAIR 39 15 37 NW18G25 30.12S AUGUSTA CLOUDY 39 14 36 W16G30 30.10R WATERVILLE FAIR 40 16 37 NW15G28 30.06R BANGOR PTSUNNY 40 13 33 NW16G31 30.04R GREENVILLE N/A 32 15 49 NW23G43 29.95S WCI 19 MILLINOCKET PTSUNNY 35 19 52 NW26G37 30.00R HOULTON FAIR 36 20 52 NW15G26 29.90R PRESQUE ISLE PTSUNNY 37 18 46 W15G22 29.91R FRENCHVILLE PTSUNNY 35 15 44 NW18G28 29.87R CARIBOU PTSUNNY 36 13 38 NW26G37 29.88R $$ NHZ002-005-008-009-011-012-014-182100- NEW HAMPSHIRE CITY SKY/WX TMP DP RH WIND PRES REMARKS PORTSMOUTH MOSUNNY 44 15 31 W14G24 30.15S ROCHESTER FAIR 42 17 36 NW18G32 30.15S NASHUA FAIR 45 15 30 W9G22 30.20S MANCHESTER FAIR 45 12 26 NW9G22 30.17F CONCORD FAIR 44 17 33 NW16G23 30.18S LACONIA FAIR 40 15 36 NW13G20 30.17S PLYMOUTH FAIR 40 17 39 NW13G21 30.17S BERLIN PTSUNNY 36 19 50 NW12G24 30.11S WHITEFIELD CLOUDY 35 18 49 NW15G22 30.14S JAFFREY FAIR 42 16 34 W9 30.18F KEENE N/A 42 13 30 W12G18 30.21S LEBANON FAIR 43 15 32 NW14G26 30.19S MT WASHINGTON NOT AVBL $$ VTZ005-007-008-182100- VERMONT CITY SKY/WX TMP DP RH WIND PRES REMARKS ST JOHNSBURY N/A 37 18 46 MISG 30.16S MONTPELIER FAIR 36 16 44 W17G26 30.22S BURLINGTON FAIR 42 15 33 NW13G22 30.24F $$ MAZ007-012-024-CTZ003-RIZ002-NYZ038-NYZ072-182100- SOUTHERN NEW ENGLAND AND NY CITY SKY/WX TMP DP RH WIND PRES REMARKS BOSTON FAIR 48 14 25 NW16G25 30.20S WORCESTER FAIR 42 17 36 NW18G28 30.18S NANTUCKET FAIR 47 18 31 W16 30.21R PROVIDENCE FAIR 48 17 29 NW12 30.22S HARTFORD FAIR 47 16 29 NW14 30.26S ALBANY FAIR 45 17 32 W20G31 30.29S NEW YORK CITY FAIR 52 19 27 NW14G24 30.30F $$ ANZ081-ANZ082-ANZ150-NHZ014-MEZ023>029-182100- COASTAL MARINE OBSERVATIONS STATION/POSITION TIME TEMP WIND PRES WAVE AIR SEA DIR/SP/G HT/PER (UTC) (F) (DEG/KT/KT) (MB) (FT/S) MOUNT DESERT ROC 2000 42 280/ 32/ 36 1016.6R MATINICUS ROCK 1900 42 300/ 31/ 36 1017.2R ISLE OF SHOALS 1900 42 300/ 24/ 28 1020.7S JEFFREYS LEDGE 1906 55 N/A 5/ 6 $$ .............KEY.............. WCI - WIND CHILL TC - TEMPERATURE IN CELSIUS VSB - VISIBILITY IN MILES HX - HEAT INDEX FAIR- INDICATES FEW OR NO CLOUDS BELOW 12,000 FT, WITH NO SIGNIFICANT WEATHER AND/OR OBSTRUCTIONS TO VISIBILITY.

USA.gov is the U.S. government's official web portal to all federal, state and local government web resources and services.